Regional Weather Roundup
Issued by NWS

Home | Current Version | Previous Version | Graphics & Text | Print | Product List | Glossary Off
Versions: 1 2 3 4 5 6 7 8 9 10 11 12 13 14 15 16 17 18 19 20 21 22 23 24 25 26 27 28 29 30 31 32 33 34 35 36 37 38 39 40 41 42 43 44 45 46 47 48 49 50

349
ASUS45 KPSR 140410
RWRAZ

ARIZONA HOURLY REGIONAL WEATHER ROUNDUP
NATIONAL WEATHER SERVICE PHOENIX AZ
900 PM MST SAT FEB 13 2016

NOTE: FAIR INDICATES FEW OR NO CLOUDS BELOW 12,000 FEET WITH NO
SIGNIFICANT WEATHER AND/OR OBSTRUCTIONS TO VISIBILITY.

AZZ001>003-036-140500-
NORTHWEST ARIZONA

CITY           SKY/WX    TMP DP  RH WIND       PRES   REMARKS
BULLHEAD CITY  CLEAR     68  23  18 NE9       30.04S
KINGMAN        CLEAR     49  19  30 E10       30.14S
$$

AZZ004>008-015-016-018-140500-
NORTH CENTRAL ARIZONA

CITY           SKY/WX    TMP DP  RH WIND       PRES   REMARKS
GRAND CANYON   CLEAR     31  21  66 CALM      30.24F
WILLIAMS       PTCLDY    34  19  55 S7        30.31R WCI  28
PRESCOTT       CLEAR     48  22  35 CALM      30.19R
FLAGSTAFF      CLEAR     34  19  54 CALM      30.26R
PAYSON         CLEAR     52  23  32 CALM      30.18S
PAGE           MOCLDY    50  32  50 CALM      30.16S
$$

AZZ009>014-017-140500-
NORTHEAST ARIZONA

CITY           SKY/WX    TMP DP  RH WIND       PRES   REMARKS
WINSLOW        PTCLDY    50  20  30 CALM      30.17R
SAINT JOHNS    PTCLDY    41  10  28 S6        30.17R
WINDOW ROCK    MOCLDY    41   0  18 NE6       30.22S
SHOW LOW       CLEAR     39  14  35 CALM      30.23R
$$

AZZ023-140500-
GREATER PHOENIX AREA

CITY           SKY/WX    TMP DP  RH WIND       PRES   REMARKS
PHOENIX        CLEAR     74  30  19 N5        29.97R
BUCKEYE        CLEAR     63  27  25 NW9       30.01R
LUKE AFB       CLEAR     62  41  44 N7        29.97R
DEER VALLEY    CLEAR     65  28  24 NE3       29.99R
SCOTTSDALE     CLEAR     67  29  24 CALM      30.00R
MESA-GATEWAY   CLEAR     59  30  33 SE6       29.99S
CHANDLER       CLEAR     64  30  27 W6        29.96F
$$

AZZ027-028-140500-
SOUTHWEST MARICOPA COUNTY AND PINAL COUNTY

CITY           SKY/WX    TMP DP  RH WIND       PRES   REMARKS
CASA GRANDE    PTCLDY    63  27  25 CALM      30.00R
GILA BEND      FAIR      62  29  29 S6        29.97R
$$

AZZ503-504-507>509-140500-
SOUTHEAST ARIZONA

CITY           SKY/WX    TMP DP  RH WIND       PRES   REMARKS
TUCSON         PTCLDY    65  22  19 W7        30.06R
DAVIS-MONTHAN  PTCLDY    63  24  22 SE9       30.04R
NOGALES        MOCLDY    56  16  20 N5        30.10R
SIERRA VISTA   PTCLDY    59  14  17 W13       30.14R
DOUGLAS        PTCLDY    60  16  18 NW13      30.09R
SAFFORD        CLEAR     55  20  25 NW9       30.03S
$$

AZZ020-021-025-026-031-140500-
SOUTHWEST ARIZONA

CITY           SKY/WX    TMP DP  RH WIND       PRES   REMARKS
YUMA           PTCLDY    70  31  23 NW5       29.98R
$$

CAZ031-033-041-043-047-048-061-140500-
SOUTHERN CALIFORNIA

CITY           SKY/WX    TMP DP  RH WIND       PRES   REMARKS
DOWNTOWN L.A.  CLEAR     57  52  83 CALM      30.03F HAZE
L.A. AIRPORT   MOCLDY    56  54  93 W5        30.06S FOG
SAN DIEGO      MOCLDY    60  54  80 N6        30.07R
BURBANK        CLEAR     65  44  46 CALM      30.04S
ONTARIO        PTCLDY    63  45  51 CALM      30.06S
RIVERSIDE      CLEAR     65  39  38 SE5       30.06S
PALM SPRINGS   CLEAR     73  29  19 NW6       30.04R
EL CENTRO NAS  PTCLDY    63  27  25 N6        30.01R
IMPERIAL       PTCLDY    68  37  32 N5        29.98R
BLYTHE         PTCLDY    67  22  18 NW9       30.01R
NEEDLES        CLEAR     67  24  19 NW6       30.04S
$$

NVZ020-UTZ003-140500-
SOUTHERN NEVADA-UTAH

CITY           SKY/WX    TMP DP  RH WIND       PRES   REMARKS
LAS VEGAS      CLEAR     62  23  22 S6        30.06S
SALT LAKE CITY FOG       29  28  96 CALM      30.34R VSB 1/8
$$

NMZ009-TXZ055-140500-
NEW MEXICO-WEST TEXAS

CITY           SKY/WX    TMP DP  RH WIND       PRES   REMARKS
ALBUQUERQUE    CLOUDY    55  17  22 NW12      30.12R
EL PASO        PTCLDY    60   9  13 CALM      30.05F
$$


........................KEY........................
SKY/WX - SKY CONDITION/WEATHER
TMP    - TEMPERATURE IN FAHRENHEIT
DP     - DEW POINT IN FAHRENHEIT
RH     - RELATIVE HUMIDITY IN PERCENT
WIND   - DIRECTION AND SPEED IN MILES PER HOUR (MPH)
VRB    - VARIABLE WIND DIRECTION
PRES   - MEAN SEA LEVEL PRESSURE IN INCHES OF MERCURY
         F - FALLING PRESSURE   R - RISING PRESSURE
         S - STEADY PRESSURE
VSB    - VISIBILITY IN MILES
HX     - HEAT INDEX IN FAHRENHEIT
WCI    - WIND CHILL INDEX IN FAHRENHEIT
TC     - TEMPERATURE IN CELSIUS WHICH IS ALSO KNOWN AS
         TEMPERATURE IN CENTIGRADE
AFB    - AIR FORCE BASE
         LUKE AFB IS LUKE AIR FORCE BASE
         DAVIS-MONTHAN IS DAVIS-MONTHAN AIR FORCE BASE
NAS    - NAVAL AIR STATION
         EL CENTRO NAS IS EL CENTRO NAVAL AIR STATION
N/A    - NOT AVAILABLE





USA.gov is the U.S. government's official web portal to all federal, state and local government web resources and services.